Regional Weather Roundup
Issued by NWS Albany, NY

Current Version | Previous Version | Graphics & Text | Print | Product List | Glossary Off
Versions: 1 2 3 4 5 6 7 8 9 10 11 12 13 14 15 16 17 18 19 20 21 22 23 24 25 26 27 28 29 30 31 32 33 34 35 36 37 38 39 40 41 42 43 44 45 46 47 48 49 50

000
ASUS41 KALY 181910
RWRALY

NEW YORK STATE HOURLY WEATHER ROUNDUP
NATIONAL WEATHER SERVICE ALBANY NY
200 PM EST THU DEC 18 2014

NOTE: "FAIR" INDICATES FEW OR NO CLOUDS BELOW 12,000 FEET WITH NO
SIGNIFICANT WEATHER AND/OR NO OBSTRUCTIONS TO VISIBILITY.

NYZ032-033-038>043-046>054-057>066-NYZ062>081-182000-
EAST


CITY           SKY/WX    TMP DP  RH WIND       PRES   REMARKS
ALBANY         CLOUDY    36  26  67 NW15G30   29.91S WCI  27
GLENS FALLS    CLOUDY    39  25  57 NW8       29.85F WCI  33
POUGHKEEPSIE   PTSUNNY   42  26  53 W9        29.90F
NEWBURGH       MOSUNNY   39  27  60 NW17G29   29.92  WCI  30
MONTGOMERY     CLOUDY    39  26  59 W12       29.90F WCI  32
WHITE PLAINS   MOSUNNY   40  24  53 W16G25    29.89F WCI  31
ISLIP          MOSUNNY   43  25  49 W20       29.88F
NEW YORK CITY  PTSUNNY   41  24  51 W15G29    29.93F
CENTRAL PARK   PTSUNNY   41  22  46 W10G20    29.95F
$$

NYZ005>009-017-018-044>046-055-056-182000-
CENTRAL


CITY           SKY/WX    TMP DP  RH WIND       PRES   REMARKS
FULTON         CLOUDY    32  26  78 W15       29.98F WCI  22
SYRACUSE       FLURRIES  32  28  85 W10       29.99S WCI  24
ROME           CLOUDY    31  29  92 NW9       29.97S WCI  23
ELMIRA         CLOUDY    34  28  79 W10       30.00R WCI  26
BINGHAMTON     CLOUDY    29  26  89 NW13G23   29.92S WCI  19
MONTICELLO     CLOUDY    30  27  86 NW14G20   29.91S WCI  20
$$

NYZ026>034-041>043-182000-
NORTH


CITY           SKY/WX    TMP DP  RH WIND       PRES   REMARKS
WATERTOWN      CLOUDY    32  22  66 W7        29.98R WCI  26
FORT DRUM      NOT AVBL
MASSENA        CLOUDY    30  25  81 W9        29.94S WCI  22
SARANAC LAKE   CLOUDY    26  22  84 W10       29.81F WCI  16
PLATTSBURGH    CLOUDY    33  25  72 NW10      29.87R WCI  25
$$

NYZ001>004-010>016-019>021-182000-
WEST


CITY           SKY/WX    TMP DP  RH WIND       PRES   REMARKS
NIAGARA FALLS  FRZ DRZL  31  26  82 W15       30.06S WCI  20
BUFFALO        FLURRIES  31  25  78 W13       30.05F WCI  21
DUNKIRK        CLOUDY    32  26  78 W15G24    30.09S WCI  22
JAMESTOWN      CLOUDY    28  25  86 W10       30.03F WCI  19
WELLSVILLE     MIX PCPN  28  25  88 W13       29.98F WCI  17
ROCHESTER      CLOUDY    32  26  78 W15G21    30.03S WCI  22
PENN YAN       CLOUDY    32  27  81 W15G21    30.00R WCI  22
$$

             KEY
       WCI = WIND CHILL INDEX
       VSB = VISIBILITY
       HX  = HEAT INDEX
$$



USA.gov is the U.S. government's official web portal to all federal, state and local government web resources and services.